CW3422 N.Cape May NJ US current weather conditions

sailwx.info

Wind from 164 at 2 knots gusting 5

Air temperature 18.3° C
Dewpoint 17.5° C

Last reported at 2019-Oct-22 21:07 UTC.
Time now 2019-Oct-22 21:52 UTC

Location: N 38°60' W 074°56'.
View on Google Maps.

See reports from other nearby stations

  
Tides and Currents Weather Stations Pressure Air Temp Water Temp Dewpoint Dewpoint Depression Visibility Wind Speed Wind Dir Waves Ship Positions
date/time (UTC)wind fromknots sea level pressurealtimeterstation pressurevisibilityair tempwater tempwave heightnotes
2019-Oct-22 21:07 164 2 gusting 5 18.3
2019-Oct-22 21:02 065 1 gusting 6 18.3
2019-Oct-22 20:42 077 0 gusting 2 18.3
2019-Oct-22 20:37 107 0 gusting 2 18.3
2019-Oct-22 20:17 180 1 gusting 4 18.3
2019-Oct-22 20:12 139 1 gusting 6 18.3
2019-Oct-22 20:02 087 1 gusting 6 18.3
2019-Oct-22 19:47 043 1 gusting 6 18.9
2019-Oct-22 19:42 131 1 gusting 6 18.9
2019-Oct-22 19:37 196 1 gusting 4 18.9
2019-Oct-22 19:32 113 1 gusting 6 18.3
2019-Oct-22 19:17 143 1 gusting 5 18.3
2019-Oct-22 19:12 141 2 gusting 7 18.3
2019-Oct-22 19:07 143 1 gusting 7 18.3
2019-Oct-22 18:42 136 1 gusting 6 18.3
2019-Oct-22 18:32 086 1 gusting 7 18.3
2019-Oct-22 18:17 166 1 gusting 6 18.9
2019-Oct-22 18:12 167 1 gusting 5 18.9
2019-Oct-22 18:07 100 0 gusting 5 18.9
2019-Oct-22 17:47 102 2 gusting 6 18.9
2019-Oct-22 17:42 166 1 gusting 6 18.9
2019-Oct-22 17:37 121 0 gusting 2 19.4
2019-Oct-22 17:17 188 1 gusting 10 18.9
2019-Oct-22 17:12 236 0 gusting 5 19.4
2019-Oct-22 17:07 155 1 gusting 5 18.3
2019-Oct-22 17:02 107 1 gusting 4 18.9
2019-Oct-22 16:32 125 2 gusting 6 18.3
2019-Oct-22 16:17 180 0 gusting 2 18.3
2019-Oct-22 16:12 152 0 gusting 2 17.8
2019-Oct-22 16:07 160 0 gusting 2 17.8
2019-Oct-22 16:02 077 1 gusting 6 17.8
2019-Oct-22 15:47 127 0 gusting 2 17.8
2019-Oct-22 15:42 171 1 gusting 4 17.8
2019-Oct-22 15:37 102 0 gusting 2 17.8
2019-Oct-22 15:12 140 0 gusting 2 17.2
2019-Oct-22 14:47 080 0 gusting 2 17.2
2019-Oct-22 14:37 134 17.2
2019-Oct-22 14:32 115 0 gusting 2 17.2
2019-Oct-22 14:12 155 1 gusting 4 16.7
2019-Oct-22 14:07 157 0 gusting 1 16.7
2019-Oct-22 14:02 152 0 gusting 5 16.7
2019-Oct-22 13:47 132 0 gusting 1 16.7
2019-Oct-22 13:42 219 16.7
2019-Oct-22 13:37 128 0 gusting 2 16.7
2019-Oct-22 13:32 149 1 gusting 4 16.7
2019-Oct-22 13:12 173 16.7
2019-Oct-22 13:02 120 0 gusting 2 16.1
2019-Oct-22 12:47 163 0 gusting 2 16.1
2019-Oct-22 12:42 189 0 gusting 2 16.1
2019-Oct-22 12:32 151 0 gusting 2 16.1
2019-Oct-22 12:12 157 0 gusting 2 16.1
2019-Oct-22 12:07 094 0 gusting 1 16.1
2019-Oct-22 11:42 219 16.1
2019-Oct-22 11:37 112 15.6
2019-Oct-22 11:32 112 15.6
2019-Oct-22 11:17 175 15.6
2019-Oct-22 11:07 164 15.6
2019-Oct-22 11:02 164 15.6
2019-Oct-22 10:47 198 15.6
2019-Oct-22 10:42 198 15.6
2019-Oct-22 10:37 198 15.6
2019-Oct-22 10:32 198 15.6
2019-Oct-22 10:17 117 15.6
2019-Oct-22 10:07 117 15.6
2019-Oct-22 10:02 117 15.6
2019-Oct-22 09:42 065 15.6
2019-Oct-22 09:37 065 0 gusting 1 15.6
2019-Oct-22 09:32 142 15.6
2019-Oct-22 09:17 142 15.0
2019-Oct-22 09:12 142 15.0
2019-Oct-22 09:07 142 15.0
2019-Oct-22 08:42 144 15.0
2019-Oct-22 08:37 144 15.0
2019-Oct-22 08:32 144 15.0
2019-Oct-22 08:17 144 15.0
2019-Oct-22 08:12 144 15.0
2019-Oct-22 08:02 144 15.0
2019-Oct-22 07:47 144 15.0
2019-Oct-22 07:42 144 15.0
2019-Oct-22 07:37 144 15.0
2019-Oct-22 07:32 144 15.0
2019-Oct-22 07:17 144 15.0
2019-Oct-22 07:12 144 15.0
2019-Oct-22 07:07 144 15.6
2019-Oct-22 07:02 144 15.6
2019-Oct-22 06:47 144 0 gusting 1 15.6
2019-Oct-22 06:42 144 15.6
2019-Oct-22 06:37 144 0 gusting 1 15.6
2019-Oct-22 06:17 076 15.6
2019-Oct-22 06:07 076 15.0
2019-Oct-22 05:47 227 15.0
2019-Oct-22 05:42 227 15.0
2019-Oct-22 05:37 227 15.0
2019-Oct-22 05:17 211 15.6
2019-Oct-22 05:02 086 15.6
2019-Oct-22 04:47 113 15.0
2019-Oct-22 04:42 113 14.4
2019-Oct-22 04:37 115 14.4
2019-Oct-22 04:07 115 14.4
2019-Oct-22 04:02 115 14.4
2019-Oct-22 03:47 115 14.4
2019-Oct-22 03:42 115 14.4
2019-Oct-22 03:37 115 14.4
2019-Oct-22 03:32 115 14.4
2019-Oct-22 03:12 115 14.4
2019-Oct-22 03:07 115 14.4
2019-Oct-22 03:02 115 14.4
2019-Oct-22 02:42 115 14.4
2019-Oct-22 02:32 115 14.4
2019-Oct-22 02:12 115 15.0
2019-Oct-22 02:07 115 15.0
2019-Oct-22 02:02 115 15.0
2019-Oct-22 01:47 115 15.0
2019-Oct-22 01:42 115 15.0
2019-Oct-22 01:37 115 15.0
2019-Oct-22 01:32 115 15.0
2019-Oct-22 01:17 115 15.0
2019-Oct-22 01:12 115 15.0
2019-Oct-22 01:07 115 15.0
2019-Oct-22 00:47 115 15.0
2019-Oct-22 00:42 117 0 gusting 0 15.0
2019-Oct-22 00:37 091 15.0
2019-Oct-22 00:32 091 15.0
2019-Oct-22 00:17 090 15.6
2019-Oct-22 00:07 090 15.0
2019-Oct-22 00:02 090 0 gusting 2 15.0
2019-Oct-21 23:47 074 0 gusting 2 15.0
2019-Oct-21 23:42 099 0 gusting 1 15.0
2019-Oct-21 23:37 099 15.0
2019-Oct-21 23:32 099 15.0
2019-Oct-21 23:17 169 15.0
2019-Oct-21 23:07 084 0 gusting 2 15.0
2019-Oct-21 23:02 084 15.0
2019-Oct-21 22:47 046 0 gusting 2 15.0
2019-Oct-21 22:42 141 0 gusting 5 15.0
2019-Oct-21 22:37 066 1 gusting 6 15.0
2019-Oct-21 22:12 086 0 gusting 4 15.0
2019-Oct-21 22:02 100 1 gusting 5 15.0
2019-Oct-21 21:42 079 1 gusting 2 15.6
2019-Oct-21 21:32 119 0 gusting 6 15.6
2019-Oct-21 21:17 076 1 gusting 4 15.6
2019-Oct-21 21:12 078 0 gusting 4 16.1
2019-Oct-21 21:07 057 1 gusting 4 16.1
2019-Oct-21 20:47 074 1 gusting 4 16.7
2019-Oct-21 20:37 164 0 gusting 6 16.7
2019-Oct-21 20:32 056 0 gusting 6 17.2
2019-Oct-21 20:17 094 0 gusting 2 17.2
2019-Oct-21 20:12 127 1 gusting 4 17.2
2019-Oct-21 20:07 057 0 gusting 2 17.2
2019-Oct-21 20:02 136 0 gusting 2 17.2
2019-Oct-21 19:42 082 0 gusting 2 17.2
2019-Oct-21 19:32 031 0 gusting 4 17.2
2019-Oct-21 19:17 050 17.8
2019-Oct-21 19:07 177 1 gusting 5 17.2
2019-Oct-21 19:02 061 0 gusting 5 17.2
2019-Oct-21 18:47 078 0 gusting 2 17.2
2019-Oct-21 18:42 166 1 gusting 5 17.2
2019-Oct-21 18:17 094 0 gusting 1 18.3
2019-Oct-21 18:12 096 1 gusting 4 17.8
2019-Oct-21 18:07 289 1 gusting 2 18.3
2019-Oct-21 18:02 304 1 gusting 4 17.8
2019-Oct-21 17:47 336 0 gusting 2 17.8
2019-Oct-21 17:12 276 1 gusting 4 17.8
2019-Oct-21 17:07 318 1 gusting 5 17.2
2019-Oct-21 17:02 297 1 gusting 6 17.8
2019-Oct-21 16:47 306 1 gusting 4 17.2
2019-Oct-21 16:42 274 2 gusting 6 17.2
2019-Oct-21 16:32 300 1 gusting 6 16.7
2019-Oct-21 16:17 262 1 gusting 6 17.8
2019-Oct-21 16:12 284 1 gusting 5 17.2
2019-Oct-21 16:07 290 1 gusting 5 17.2
2019-Oct-21 16:02 308 2 gusting 7 17.2
2019-Oct-21 15:42 275 1 gusting 2 17.2
2019-Oct-21 15:12 317 2 gusting 6 16.1
2019-Oct-21 14:47 315 2 gusting 5 15.6
2019-Oct-21 14:42 327 1 gusting 4 15.6
2019-Oct-21 14:32 337 0 gusting 4 15.6
2019-Oct-21 14:17 341 0 gusting 6 15.0
2019-Oct-21 14:12 329 1 gusting 4 14.4
2019-Oct-21 14:07 341 1 gusting 4 14.4
2019-Oct-21 13:42 301 1 gusting 4 13.3
2019-Oct-21 13:17 356 1 gusting 4 12.8
2019-Oct-21 13:02 342 1 gusting 6 12.2
2019-Oct-21 12:42 347 1 gusting 4 12.2
2019-Oct-21 12:37 335 2 gusting 6 12.2
2019-Oct-21 12:32 345 1 gusting 6 12.2
2019-Oct-21 12:17 321 1 gusting 2 12.2
2019-Oct-21 12:12 316 0 gusting 6 12.2
2019-Oct-21 12:07 342 1 gusting 4 12.2
2019-Oct-21 12:02 014 0 gusting 2 12.2
2019-Oct-21 11:47 331 1 gusting 4 12.2
2019-Oct-21 11:42 325 1 gusting 5 12.2
2019-Oct-21 11:37 352 0 gusting 5 12.2
2019-Oct-21 11:32 321 1 gusting 2 12.2
2019-Oct-21 11:17 352 1 gusting 4 12.2
2019-Oct-21 11:07 322 1 gusting 2 12.2
2019-Oct-21 10:47 305 1 gusting 4 12.2
2019-Oct-21 10:42 340 1 gusting 4 12.2
2019-Oct-21 10:37 304 2 gusting 6 12.2
2019-Oct-21 10:32 317 1 gusting 6 12.2
2019-Oct-21 10:17 352 1 gusting 4 12.2
2019-Oct-21 10:02 358 1 gusting 6 12.2
2019-Oct-21 09:47 355 0 gusting 2 12.2
2019-Oct-21 09:42 326 1 gusting 2 12.2
2019-Oct-21 09:32 329 0 gusting 7 12.2
2019-Oct-21 09:12 320 1 gusting 6 12.2
2019-Oct-21 09:07 355 1 gusting 4 12.2
2019-Oct-21 09:02 011 1 gusting 6 12.2
2019-Oct-21 08:37 325 1 gusting 4 12.2
2019-Oct-21 08:32 316 1 gusting 7 12.2
2019-Oct-21 08:12 004 1 gusting 4 12.2
2019-Oct-21 08:02 339 2 gusting 8 12.8
2019-Oct-21 07:42 331 2 gusting 6 12.8
2019-Oct-21 07:32 009 0 gusting 4 12.8
2019-Oct-21 07:12 339 1 gusting 4 12.8
2019-Oct-21 07:07 317 0 gusting 2 12.8
2019-Oct-21 07:02 356 1 gusting 4 12.8
2019-Oct-21 06:47 341 1 gusting 4 12.8
2019-Oct-21 06:42 315 1 gusting 4 12.8
2019-Oct-21 06:37 346 1 gusting 4 12.8
2019-Oct-21 06:32 324 1 gusting 6 12.8
2019-Oct-21 06:17 313 1 gusting 6 12.8
2019-Oct-21 05:42 001 1 gusting 2 12.2
2019-Oct-21 05:37 317 0 gusting 2 12.2
2019-Oct-21 05:32 015 1 gusting 5 12.2
2019-Oct-21 05:07 358 0 gusting 2 12.2
2019-Oct-21 05:02 051 0 gusting 2 12.8
2019-Oct-21 04:47 013 0 gusting 4 12.8
2019-Oct-21 04:42 087 1 gusting 4 12.8
2019-Oct-21 04:37 052 0 gusting 2 12.8
2019-Oct-21 04:32 341 1 gusting 4 12.8
2019-Oct-21 04:17 021 1 gusting 4 12.8
2019-Oct-21 04:12 023 0 gusting 2 12.8
2019-Oct-21 04:07 017 1 gusting 2 12.8
2019-Oct-21 04:02 068 1 gusting 6 12.8
2019-Oct-21 03:47 347 0 gusting 2 12.8
2019-Oct-21 03:42 358 1 gusting 6 12.8
2019-Oct-21 03:37 015 1 gusting 2 12.8
2019-Oct-21 03:32 354 0 gusting 4 13.3
2019-Oct-21 03:17 026 1 gusting 2 13.9
2019-Oct-21 03:12 027 1 gusting 4 13.9
2019-Oct-21 03:07 052 1 gusting 4 13.3
2019-Oct-21 02:42 045 1 gusting 4 13.3
2019-Oct-21 02:32 023 1 gusting 6 13.3
2019-Oct-21 01:42 060 1 gusting 6 13.9
2019-Oct-21 01:37 002 2 gusting 6 13.9
2019-Oct-21 01:32 013 1 gusting 6 13.9
2019-Oct-21 01:12 359 2 gusting 4 13.9
2019-Oct-21 01:07 057 2 gusting 6 13.9
2019-Oct-21 01:02 003 2 gusting 6 13.9
2019-Oct-21 00:37 075 1 gusting 4 13.9
2019-Oct-21 00:17 048 1 gusting 7 13.9
2019-Oct-21 00:12 025 2 gusting 7 13.9
2019-Oct-21 00:07 069 2 gusting 5 14.4
2019-Oct-20 23:32 056 3 gusting 10 14.4
2019-Oct-20 23:12 056 3 gusting 10 14.4
2019-Oct-20 23:07 050 2 gusting 10 14.4
2019-Oct-20 22:42 075 4 gusting 10 14.4
2019-Oct-20 22:37 058 2 gusting 8 14.4
2019-Oct-20 22:32 036 2 gusting 8 14.4
2019-Oct-20 22:17 039 2 gusting 7 15.0
2019-Oct-20 22:12 045 2 gusting 6 15.0
2019-Oct-20 22:07 044 2 gusting 6 15.0
2019-Oct-20 21:47 039 3 gusting 10 15.0
2019-Oct-20 21:42 073 2 gusting 6 15.0
2019-Oct-20 21:32 071 2 gusting 8 15.0
2019-Oct-20 21:17 073 2 gusting 7 15.0
2019-Oct-20 21:12 055 2 gusting 6 15.0
2019-Oct-20 21:02 058 3 gusting 10 15.0